Flight Track Log - Related Links

Times and Time Zones

All times are in EDT time to prevent confusion due to time zone crossing. See the JBU1329 flight status page for this flight to view local times or setup timezone preferences in your user account.

Time Position Orientation Groundspeed Altitude Reporting Facility
EDT Latitude Longitude Course Direction KTS MPH feet Rate Location/Type
Fri 09:19:44 AM 42.3500 -71.0167 240° Southwest 179 206 1,100  Level KA90
Fri 09:22:00 AM 42.3924 -70.7424 144° Southeast  Level FlightAware Approximate
Fri 09:22:03 AM 42.3244 -70.8422 101° East 231 266 6,300  Level Boston Center
Fri 09:23:00 AM 42.3020 -70.7171 172° South  Level FlightAware Approximate
Fri 09:23:03 AM 42.3150 -70.7528 98° East 241 277 9,500  Level Boston Center
Fri 09:24:00 AM 42.2388 -70.8084 228° Southwest  Level FlightAware Approximate
Fri 09:24:03 AM 42.2353 -70.7322 169° South 230 265 11,800  Level Boston Center
Fri 09:25:00 AM 42.1907 -70.9162 240° Southwest  Level FlightAware Approximate
Fri 09:25:03 AM 42.1783 -70.8181 228° Southwest 212 244 14,600  Level Boston Center
Fri 09:26:03 AM 42.1592 -70.9444 258° West 248 285 17,600 2,550 Climbing Boston Center
Fri 09:27:03 AM 42.1525 -71.0650 266° West 298 343 19,700 2,150 Climbing Boston Center
Fri 09:28:03 AM 42.1414 -71.1942 263° West 328 377 21,900 2,100 Climbing Boston Center
Fri 09:29:03 AM 42.1219 -71.3261 259° West 350 403 23,900 1,900 Climbing Boston Center
Fri 09:30:03 AM 42.0711 -71.4528 242° Southwest 366 421 25,700 1,850 Climbing Boston Center
Fri 09:31:03 AM 42.0219 -71.5822 243° Southwest 383 441 27,600 1,700 Climbing Boston Center
Fri 09:32:03 AM 41.9731 -71.7197 244° Southwest 395 455 29,100 1,450 Climbing Boston Center
Fri 09:33:03 AM 41.9236 -71.8542 244° Southwest 400 460 30,500 1,300 Climbing Boston Center
Fri 09:34:03 AM 41.8703 -72.0053 245° Southwest 406 467 31,700 750 Climbing Boston Center
Fri 09:35:03 AM 41.8186 -72.1475 244° Southwest 406 467 32,000 150 Climbing Boston Center
Fri 09:36:03 AM 41.7667 -72.2869 243° Southwest 411 473 32,000  Level Boston Center
Fri 09:37:03 AM 41.7147 -72.4289 244° Southwest 417 480 32,000  Level Boston Center
Fri 09:38:03 AM 41.6647 -72.5650 244° Southwest 422 486 32,000  Level Boston Center
Fri 09:39:03 AM 41.6122 -72.7039 243° Southwest 422 486 32,000  Level Boston Center
Fri 09:40:03 AM 41.5619 -72.8425 244° Southwest 422 486 32,000  Level Boston Center
Fri 09:41:03 AM 41.5114 -72.9750 243° Southwest 416 479 32,000  Level Boston Center
Fri 09:42:03 AM 41.4628 -73.1106 244° Southwest 410 472 32,000  Level Boston Center
Fri 09:44:07 AM 41.3575 -73.3861 243° Southwest 392 451 32,000  Level New York Center
Fri 09:45:04 AM 41.3067 -73.5194 243° Southwest 398 458 32,000  Level New York Center
Fri 09:46:06 AM 41.2431 -73.6519 237° Southwest 409 471 32,000  Level New York Center
Fri 09:47:04 AM 41.1714 -73.7700 231° Southwest 420 483 32,000  Level New York Center
Fri 09:48:05 AM 41.1017 -73.8908 233° Southwest 420 483 32,000 -50 Level New York Center
Fri 09:49:05 AM 41.0297 -74.0086 231° Southwest 420 483 31,900 -738 Descending New York Center
Fri 09:50:07 AM 40.9597 -74.1289 232° Southwest 426 490 30,500 -1,426 Descending New York Center
Fri 09:51:07 AM 40.8856 -74.2431 229° Southwest 426 490 29,000 -1,250 Descending New York Center
Fri 09:52:07 AM 40.8175 -74.3575 232° Southwest 415 478 28,000 -508 Descending New York Center
Fri 09:53:05 AM 40.7497 -74.4664 231° Southwest 405 466 28,000 -252 Level New York Center
Fri 09:54:06 AM 40.6814 -74.5803 232° Southwest 405 466 27,500 -893 Descending New York Center
Fri 09:55:06 AM 40.6153 -74.6914 232° Southwest 400 460 26,200 -1,240 Descending New York Center
Fri 09:56:07 AM 40.5450 -74.7994 229° Southwest 400 460 25,000 -1,190 Descending New York Center
Fri 09:57:07 AM 40.4750 -74.8933 226° Southwest 389 448 23,800 -1,200 Descending New York Center
Fri 09:58:07 AM 40.4067 -74.9958 229° Southwest 379 436 22,600 -1,210 Descending New York Center
Fri 09:59:06 AM 40.3367 -75.0894 226° Southwest 373 429 21,400 -1,160 Descending New York Center
Fri 10:00:06 AM 40.2747 -75.1836 229° Southwest 360 414 20,300 -1,091 Descending New York Center
Fri 10:01:07 AM 40.2069 -75.2744 226° Southwest 360 414 19,200 -1,091 Descending New York Center
Fri 10:02:07 AM 40.1408 -75.3650 226° Southwest 355 409 18,100 -615 Descending New York Center
Fri 10:03:04 AM 40.0814 -75.4453 226° Southwest 350 403 18,000 -51 Descending New York Center
Fri 10:04:05 AM 40.0108 -75.5408 226° Southwest 345 397 18,000  Level New York Center
Fri 10:05:06 AM 39.9533 -75.6208 227° Southwest 340 391 18,000 -645 Level New York Center
Fri 10:06:06 AM 39.8908 -75.7219 231° Southwest 333 383 16,700 -1,190 Descending New York Center
Fri 10:07:07 AM 39.8453 -75.8108 236° Southwest 333 383 15,600 -1,121 Descending New York Center
Fri 10:09:24 AM 39.7333 -76.0333 237° Southwest 296 341 13,000 -1,091 Descending Potomac TRACON
Fri 10:10:25 AM 39.6833 -76.1167 232° Southwest 286 329 12,000 -1,048 Descending Potomac TRACON
Fri 10:11:30 AM 39.6333 -76.2167 237° Southwest 282 325 10,800 -1,333 Descending Potomac TRACON
Fri 10:12:31 AM 39.5833 -76.3000 232° Southwest 272 313 9,200 -1,686 Descending Potomac TRACON
Fri 10:13:31 AM 39.5500 -76.3833 243° Southwest 274 315 7,400 -1,700 Descending Potomac TRACON
Fri 10:14:31 AM 39.5000 -76.4667 232° Southwest 267 307 5,800 -1,200 Descending Potomac TRACON
Fri 10:15:31 AM 39.4500 -76.4833 194° South 278 320 5,000 -678 Descending Potomac TRACON
Fri 10:16:26 AM 39.3833 -76.4667 169° South 271 312 4,500 -496 Descending Potomac TRACON
Fri 10:17:32 AM 39.3000 -76.4333 163° South 271 312 4,000 -250 Descending Potomac TRACON
Fri 10:18:26 AM 39.2333 -76.4167 169° South 271 312 4,000 -474 Level Potomac TRACON
Fri 10:19:26 AM 39.1667 -76.4000 169° South 263 303 3,100 -496 Descending Potomac TRACON
Fri 10:20:27 AM 39.1000 -76.4667 218° Southwest 245 282 3,000 -49 Descending Potomac TRACON
Fri 10:21:28 AM 39.0833 -76.5167 247° West 193 222 3,000 -397 Level Potomac TRACON
Fri 10:22:28 AM 39.0833 -76.5833 270° West 157 181 2,200 -737 Descending Potomac TRACON
Fri 10:23:22 AM 39.1167 -76.6167 322° Northwest 155 178 1,600 -789 Descending Potomac TRACON
Fri 10:24:22 AM 39.1500 -76.6500 322° Northwest 144 166 700 -900 Descending Potomac TRACON
Fri 10:26:00 AM 39.1667 -76.6667 270° West  Level FlightAware Approximate

Login

Don't have an account? Register now (free) for customized features, flight alerts, and more!